SCP
0 0 0 0 0 0 0 0 0 0 0 0 0 0 0 0 0 0 0 0 0 0 0 0 0 0 0 0 0 0 0 0 0 0 0 0 0 0 0 0 0 0 0
0 0 0 0 0 0 0 0 0 0 0 0 0 0 0 0 0 0 0 0 0 0 0 0 0 0 0 0 0 0 0 0 0 0 0 0 0 0 0 0 0 0 0
0 0 0 0 0 0 0 0 0 0 0 0 0 0 0 0 0 0 0 0 0 0 0 0 0 0 0 0 0 0 0 0 0 0 0 0 0 0 0 0 0 0 0
0 0 0 0 0 0 0 0 0 0 0 0 0 0 0 0 0 0 0 0 0 0 0 0 0 0 0 0 0 0 0 0 0 0 0 0 0 0 0 0 0 0 0
0 0 0 0 0 0 0 0 0 0 0 0 0 0 0 0 0 0 0 0 0 0 0 0 0 0 0 0 0 0 0 0 0 0 0 0 0 0 0 0 0 0 0
0 0 0 0 0 0 0 0 0 0 0 0 0 0 0 0 0 0 0 0 0 0 0 0 0 0 0 0 0 0 0 0 0 0 0 0 0 0 0 0 0 0 0
0 0 0 0 0 0 0 0 0 0 0 0 0 0 0 0 0 0 0 0 0 0 0 0 0 0 0 0 0 0 0 0 0 0 0 0 0 0 0 0 0 0 0
0 0 0 0 0 0 0 0 0 0 0 0 0 0 0 0 0 0 0 0 0 0 0 0 0 0 0 0 0 0 0 0 0 0 0 0 0 0 0 0 0 0 0
0 0 0 0 0 0 0 0 0 0 0 0 0 0 0 0 0 0 0 0 0 0 0 0 0 0 0 0 0 0 0 0 0 0 0 0 0 0 0 0 0 0 0
0 0 0 0 0 0 0 0 0 0 0 0 0 0 0 0 0 0 0 0 0 0 0 0 0 0 0 0 0 0 0 0 0 0 0 0 0 0 0 0 0 0 0
0 0 0 0 0 0 0 0 0 0 0 0 0 0 0 0 0 0 0 0 0 0 0 0 0 0 0 0 0 0 0 0 0 0 0 0 0 0 0 0 0 0 0
0 0 0 0 0 0 0 0 0 0 0 0 0 0 0 0 0 0 0 0 0 0 0 0 0 0 0 0 0 0 0 0 0 0 0 0 0 0 0 0 0 0 0
0 0 0 0 0 0 0 0 0 0 0 0 0 0 0 0 0 0 0 0 0 0 0 0 0 0 0 0 0 0 0 0 0 0 0 0 0 0 0 0 0 0 0
0 0 0 0 0 0 0 0 0 0 0 0 0 0 0 0 0 0 0 0 0 0 0 0 0 0 0 0 0 0 0 0 0 0 0 0 0 0 0 0 0 0 0
-0 0 0 0 0 0 0 0 0 0 0 0 0 0 0 0 0 0 0 0 0 0 0 0 0 0 0 0 0 0 0 0 0 0 0 0 0 0 0 0 0 0 0
-0 -0 0 0 0 0 0 0 0 0 0 0 0 0 0 0 0 0 0 0 0 0 0 0 0 0 0 0 0 0 0 0 0 0 0 0 0 0 0 0 0 0 0
-0 -0 -0 0 0 0 0 0 0 0 0 0 0 0 0 0 0 0 0 0 0 0 0 0 0 0 0 0 0 0 0 0 0 0 0 0 0 0 0 0 0 0 0
-0 -0 -0 -0 0 0 0 0 0 0 0 0 0 0 0 0 0 0 0 0 0 0 0 0 0 0 0 0 0 0 0 0 0 0 0 0 0 0 0 0 0 0 0
-0 -0 -0 -0 0 0 0 0 0 0 0 0 0 0 0 0 0 0 0 0 0 0 0 0 0 0 0 0 0 0 0 0 0 0 0 0 0 0 0 0 0 0 0
-0 -0 -0 -0 -0 0 0 0 0 0 0 0 0 0 0 0 0 0 0 0 0 0 0 0 0 0 0 0 0 0 0 0 0 0 0 0 0 0 0 0 0 0 0
-0 -0 -0 -0 0 -0 0 0 0 0 0 0 0 0 0 0 0 0 0 0 0 0 0 0 0 0 0 0 0 0 0 0 0 0 0 0 0 0 0 0 0 0 0
0 0 0 0 -0 0 0 0 0 0 0 0 0 0 0 0 0 0 0 0 0 0 0 0 0 0 0 0 0 0 0 0 0 0 0 0 0 0 0 0 0 0 0
0 0 0 0 0 0 0 0 0 0 0 0 0 0 0 0 0 0 0 0 0 0 0 0 0 0 0 0 0 0 0 0 0 0 0 0 0 0 0 0 0 0 0
0 0 0 0 0 0 0 0 0 0 0 0 0 0 0 0 0 0 0 0 0 0 0 0 0 0 0 0 0 0 0 0 0 0 0 0 0 0 0 0 0 0 0
0 0 0 0 0 0 0 0 0 0 0 0 0 0 0 0 0 0 0 0 0 0 0 0 0 0 0 0 0 0 0 0 0 0 0 0 0 0 0 0 0 0 0
0 0 0 0 0 0 0 0 0 0 0 0 0 0 0 0 0 0 0 0 0 0 0 0 0 0 0 0 0 0 0 0 0 0 0 0 0 0 0 0 0 0 0
Wind_Speed_500mb
106 107 103 102 100 100 94 89 86 84 79 77 77 73 70 68 71 73 68 59 56 55 52 55 45 42 42 39 38 36 31 28 25 25 22 22 22 24 25 25 26 29 28
92 101 100 98 99 97 93 84 81 80 78 78 79 76 72 70 71 78 73 55 61 62 49 55 49 45 44 41 41 38 32 31 28 30 28 27 28 28 32 30 31 33 32
92 91 90 93 99 93 86 78 75 77 82 84 80 77 80 71 75 81 75 59 63 57 51 53 49 47 45 42 43 38 35 33 33 35 33 32 34 34 38 37 34 37 36
78 81 85 91 89 81 73 73 88 86 71 81 86 86 90 86 79 82 65 69 56 53 54 49 49 46 42 41 42 38 38 36 38 39 37 37 40 40 43 42 42 44 40
62 66 72 76 81 78 83 77 82 87 85 92 89 99 97 105 71 69 72 55 60 61 50 53 50 47 43 45 44 42 42 39 43 43 42 42 42 41 45 48 51 49 46
41 50 56 59 61 65 70 76 83 93 99 98 106 88 85 79 51 62 52 55 56 54 56 54 50 48 47 47 44 44 42 42 45 46 45 44 44 43 48 50 53 53 55
14 29 44 51 56 60 64 71 74 76 78 70 65 56 46 59 51 50 63 56 58 52 54 53 52 46 48 48 46 47 46 46 47 45 48 45 47 44 50 53 52 52 52
13 16 27 33 35 36 37 40 41 47 52 58 56 53 52 45 50 46 51 49 51 52 53 51 49 45 50 48 47 50 47 47 45 45 47 46 48 49 50 53 53 54 54
14 23 26 25 28 31 35 38 39 41 42 46 48 49 46 47 51 48 52 53 56 54 52 51 49 49 50 49 51 49 45 45 43 50 51 50 52 53 51 52 49 50 53
18 17 19 23 27 31 33 38 40 42 44 49 50 48 47 46 45 44 53 53 55 56 55 53 52 48 51 50 49 46 48 38 44 53 55 55 54 53 52 46 46 46 47
21 24 26 29 29 32 34 37 41 47 49 46 45 43 42 42 47 50 47 50 52 52 53 50 48 46 48 48 48 47 42 41 49 57 54 51 49 46 43 44 44 43 43
30 24 26 33 32 35 37 36 36 33 30 30 34 40 42 43 45 46 46 45 46 49 49 46 44 52 49 45 44 40 41 46 50 52 51 47 44 41 37 38 37 38 40
41 35 32 27 34 40 43 44 48 47 43 41 50 46 40 36 39 38 45 46 46 47 46 45 47 46 40 34 38 42 46 45 48 46 45 43 39 37 32 29 32 34 36
54 48 39 39 36 41 46 54 51 53 53 48 51 57 55 42 43 46 50 53 53 49 50 53 47 36 36 39 40 42 38 44 43 39 34 32 28 23 24 30 30 32 35
61 54 46 36 38 45 48 49 54 55 50 44 46 48 43 43 48 50 55 56 49 50 49 46 43 42 34 36 36 36 36 35 31 26 24 25 23 24 27 33 36 37 39
67 61 53 45 36 38 48 48 53 55 53 42 43 43 42 43 45 48 49 47 47 45 52 47 36 36 39 39 38 36 32 25 22 23 22 21 19 22 27 31 35 39 42
67 64 56 49 42 35 37 41 46 51 55 53 49 48 48 44 46 41 43 46 49 47 42 39 37 34 35 40 35 28 23 21 17 20 22 21 24 26 30 32 36 39 41
56 57 51 43 39 30 28 31 37 43 45 47 46 43 43 39 41 40 38 40 37 32 32 31 34 38 34 29 24 22 19 19 16 15 16 19 22 23 24 27 31 36 40
52 52 53 42 37 29 22 27 30 34 35 33 29 20 21 22 24 27 30 27 29 27 30 29 28 26 24 21 17 17 16 14 10 10 11 12 14 18 22 28 32 36 42
49 48 47 46 35 28 20 15 19 22 25 26 24 24 23 21 27 26 22 22 24 22 22 22 22 19 17 16 16 14 12 9 6 6 7 11 15 21 26 30 36 40 43
41 40 43 41 37 26 18 11 2 8 15 22 25 22 20 18 20 18 19 18 18 18 16 16 14 14 16 17 17 15 12 8 3 5 11 17 22 27 32 37 40 43 47
33 32 31 30 34 33 27 22 22 17 15 15 20 23 22 20 21 18 15 14 15 15 13 12 13 15 17 17 17 13 8 3 2 9 17 24 29 32 35 38 42 45 46
24 25 23 21 19 19 19 20 19 18 17 15 13 14 15 13 12 14 15 15 15 15 16 18 20 20 18 15 11 7 2 4 10 17 23 28 32 33 37 40 43 45 46
17 16 17 19 16 13 9 6 7 7 6 7 8 8 6 5 8 10 11 13 16 19 21 20 19 17 14 11 7 1 5 13 20 25 29 31 32 36 40 40 41 42 44
14 17 22 20 16 12 8 4 4 6 8 8 7 6 6 8 10 13 16 19 20 20 20 19 16 12 7 3 3 9 16 23 28 32 33 34 36 38 38 39 40 42 43
18 18 17 15 13 8 3 4 4 5 5 5 6 7 9 13 17 20 22 22 22 20 18 15 11 5 1 7 12 19 25 29 31 33 36 37 39 37 38 40 41 44 44
Wind_Direction_500mb
233 234 234 235 238 242 244 246 248 251 251 250 248 249 250 246 244 243 243 240 236 239 237 241 233 230 232 232 233 235 237 242 245 254 256 263 273 279 290 294 303 307 309
236 236 237 239 239 243 245 249 252 253 254 252 250 249 250 248 246 245 242 243 239 233 233 237 230 225 224 227 232 235 238 243 249 256 260 269 273 280 284 287 296 300 306
235 237 239 241 242 242 246 248 252 253 257 253 249 247 247 247 243 245 238 240 238 226 229 230 230 228 225 226 231 234 240 247 253 259 264 269 275 281 283 286 291 294 299
242 241 241 242 244 243 243 242 251 253 253 259 254 246 246 242 240 242 238 237 227 223 222 223 226 228 227 229 232 236 243 249 256 261 266 269 274 279 285 288 286 290 294
242 243 246 247 249 247 243 244 241 242 244 253 251 248 242 238 242 241 242 231 225 223 218 222 222 224 224 229 232 237 245 251 258 263 268 273 277 283 286 286 287 290 295
239 243 247 254 256 256 255 256 254 251 251 252 247 244 242 240 252 244 229 229 223 225 221 222 219 222 228 231 234 240 247 255 262 266 272 276 280 283 284 285 288 294 298
248 240 240 244 248 251 252 252 252 251 253 258 260 262 247 232 245 234 233 222 225 221 222 218 220 222 230 232 235 241 246 255 263 269 274 279 279 281 281 284 288 291 293
318 291 268 265 263 255 250 249 249 252 255 249 245 239 237 238 234 233 225 222 223 222 220 220 222 223 233 235 238 243 248 257 268 272 273 276 277 278 281 283 287 291 293
282 281 275 266 263 262 261 262 259 253 249 243 245 253 245 236 229 220 219 218 222 222 221 220 222 224 232 236 242 247 251 258 269 274 275 276 278 279 282 286 289 291 295
252 240 261 273 266 260 255 248 247 248 248 252 248 239 230 227 228 222 224 225 223 221 220 218 219 229 235 238 245 250 254 262 269 273 274 276 280 283 284 285 286 288 290
303 272 246 222 235 249 248 243 244 244 242 240 238 235 235 228 230 234 228 227 227 226 224 222 225 231 238 242 245 249 259 263 266 270 273 276 278 280 284 288 285 285 288
335 309 279 266 244 232 237 234 241 234 225 233 241 234 230 226 226 226 225 228 227 226 225 223 225 234 239 241 251 259 263 266 272 270 273 275 278 278 282 282 284 286 288
347 331 311 278 257 251 244 242 234 228 230 245 249 252 243 240 238 234 229 224 223 221 221 222 233 237 242 255 264 266 265 270 269 267 271 276 281 283 285 284 282 282 288
345 337 325 305 276 256 244 245 237 243 239 236 249 241 248 244 240 236 233 224 218 214 217 224 231 238 247 258 266 262 267 265 266 270 273 276 284 289 289 284 285 289 295
346 338 327 313 292 268 255 249 248 241 236 240 246 247 247 243 241 237 230 225 219 215 221 225 235 245 260 261 257 258 258 263 265 268 264 269 278 284 284 286 293 297 299
351 342 333 320 303 282 268 258 247 241 240 234 237 236 233 232 231 230 227 223 221 215 220 231 234 244 253 250 247 251 259 257 251 258 266 275 284 292 292 294 297 301 302
353 347 339 328 311 297 277 263 256 246 238 230 224 227 226 227 229 221 217 215 214 217 221 229 237 244 240 242 243 239 237 240 251 255 265 275 285 288 290 292 295 298 302
356 352 345 341 323 307 291 274 263 251 242 235 233 228 225 222 220 220 214 215 210 212 222 227 223 231 234 226 223 229 227 232 244 259 268 274 281 285 289 293 296 300 305
356 0 359 356 345 323 306 286 266 247 235 221 212 196 193 195 196 201 207 211 207 204 208 215 212 213 213 213 216 222 220 221 230 251 265 275 286 294 300 302 304 307 310
4 5 7 12 9 348 330 306 267 234 209 192 176 170 160 171 172 171 168 177 189 194 192 192 195 194 199 206 205 202 191 175 175 224 265 289 304 309 310 312 313 316 317
359 0 16 18 25 28 16 23 19 171 165 147 141 143 141 146 144 149 159 161 166 175 178 183 190 200 199 188 171 163 154 150 169 307 314 317 319 318 318 318 320 322 321
355 359 9 22 33 36 50 72 79 89 104 113 114 121 118 127 135 141 152 160 168 181 181 184 180 174 170 163 151 145 143 149 349 332 321 318 318 318 318 319 319 320 323
345 355 6 17 29 53 67 70 76 87 106 123 128 134 132 129 140 157 167 171 175 168 158 155 153 157 158 150 138 136 126 333 330 325 320 319 319 318 318 322 322 326 330
329 331 345 355 358 2 26 75 110 115 105 100 99 98 95 122 152 160 155 153 148 142 143 148 150 149 144 140 139 115 330 326 327 327 325 323 320 321 321 324 327 331 332
345 346 347 347 352 357 360 21 63 78 74 68 75 110 140 146 143 139 139 139 141 142 144 144 142 138 132 117 346 329 327 329 330 328 326 323 320 319 322 326 328 326 328
336 333 335 339 338 346 29 70 72 81 100 121 129 132 141 143 143 144 143 143 141 142 141 142 140 139 356 330 330 326 328 330 332 327 322 319 320 321 323 322 320 319 322
Wind_Speed_850mb
106 107 103 102 100 100 94 89 86 84 79 77 77 73 70 68 71 73 68 59 56 55 52 55 45 42 42 39 38 36 31 28 25 25 22 22 22 24 25 25 26 29 28
92 101 100 98 99 97 93 84 81 80 78 78 79 76 72 70 71 78 73 55 61 62 49 55 49 45 44 41 41 38 32 31 28 30 28 27 28 28 32 30 31 33 32
92 91 90 93 99 93 86 78 75 77 82 84 80 77 80 71 75 81 75 59 63 57 51 53 49 47 45 42 43 38 35 33 33 35 33 32 34 34 38 37 34 37 36
78 81 85 91 89 81 73 73 88 86 71 81 86 86 90 86 79 82 65 69 56 53 54 49 49 46 42 41 42 38 38 36 38 39 37 37 40 40 43 42 42 44 40
62 66 72 76 81 78 83 77 82 87 85 92 89 99 97 105 71 69 72 55 60 61 50 53 50 47 43 45 44 42 42 39 43 43 42 42 42 41 45 48 51 49 46
41 50 56 59 61 65 70 76 83 93 99 98 106 88 85 79 51 62 52 55 56 54 56 54 50 48 47 47 44 44 42 42 45 46 45 44 44 43 48 50 53 53 55
14 29 44 51 56 60 64 71 74 76 78 70 65 56 46 59 51 50 63 56 58 52 54 53 52 46 48 48 46 47 46 46 47 45 48 45 47 44 50 53 52 52 52
13 16 27 33 35 36 37 40 41 47 52 58 56 53 52 45 50 46 51 49 51 52 53 51 49 45 50 48 47 50 47 47 45 45 47 46 48 49 50 53 53 54 54
14 23 26 25 28 31 35 38 39 41 42 46 48 49 46 47 51 48 52 53 56 54 52 51 49 49 50 49 51 49 45 45 43 50 51 50 52 53 51 52 49 50 53
18 17 19 23 27 31 33 38 40 42 44 49 50 48 47 46 45 44 53 53 55 56 55 53 52 48 51 50 49 46 48 38 44 53 55 55 54 53 52 46 46 46 47
21 24 26 29 29 32 34 37 41 47 49 46 45 43 42 42 47 50 47 50 52 52 53 50 48 46 48 48 48 47 42 41 49 57 54 51 49 46 43 44 44 43 43
30 24 26 33 32 35 37 36 36 33 30 30 34 40 42 43 45 46 46 45 46 49 49 46 44 52 49 45 44 40 41 46 50 52 51 47 44 41 37 38 37 38 40
41 35 32 27 34 40 43 44 48 47 43 41 50 46 40 36 39 38 45 46 46 47 46 45 47 46 40 34 38 42 46 45 48 46 45 43 39 37 32 29 32 34 36
54 48 39 39 36 41 46 54 51 53 53 48 51 57 55 42 43 46 50 53 53 49 50 53 47 36 36 39 40 42 38 44 43 39 34 32 28 23 24 30 30 32 35
61 54 46 36 38 45 48 49 54 55 50 44 46 48 43 43 48 50 55 56 49 50 49 46 43 42 34 36 36 36 36 35 31 26 24 25 23 24 27 33 36 37 39
67 61 53 45 36 38 48 48 53 55 53 42 43 43 42 43 45 48 49 47 47 45 52 47 36 36 39 39 38 36 32 25 22 23 22 21 19 22 27 31 35 39 42
67 64 56 49 42 35 37 41 46 51 55 53 49 48 48 44 46 41 43 46 49 47 42 39 37 34 35 40 35 28 23 21 17 20 22 21 24 26 30 32 36 39 41
56 57 51 43 39 30 28 31 37 43 45 47 46 43 43 39 41 40 38 40 37 32 32 31 34 38 34 29 24 22 19 19 16 15 16 19 22 23 24 27 31 36 40
52 52 53 42 37 29 22 27 30 34 35 33 29 20 21 22 24 27 30 27 29 27 30 29 28 26 24 21 17 17 16 14 10 10 11 12 14 18 22 28 32 36 42
49 48 47 46 35 28 20 15 19 22 25 26 24 24 23 21 27 26 22 22 24 22 22 22 22 19 17 16 16 14 12 9 6 6 7 11 15 21 26 30 36 40 43
41 40 43 41 37 26 18 11 2 8 15 22 25 22 20 18 20 18 19 18 18 18 16 16 14 14 16 17 17 15 12 8 3 5 11 17 22 27 32 37 40 43 47
33 32 31 30 34 33 27 22 22 17 15 15 20 23 22 20 21 18 15 14 15 15 13 12 13 15 17 17 17 13 8 3 2 9 17 24 29 32 35 38 42 45 46
24 25 23 21 19 19 19 20 19 18 17 15 13 14 15 13 12 14 15 15 15 15 16 18 20 20 18 15 11 7 2 4 10 17 23 28 32 33 37 40 43 45 46
17 16 17 19 16 13 9 6 7 7 6 7 8 8 6 5 8 10 11 13 16 19 21 20 19 17 14 11 7 1 5 13 20 25 29 31 32 36 40 40 41 42 44
14 17 22 20 16 12 8 4 4 6 8 8 7 6 6 8 10 13 16 19 20 20 20 19 16 12 7 3 3 9 16 23 28 32 33 34 36 38 38 39 40 42 43
18 18 17 15 13 8 3 4 4 5 5 5 6 7 9 13 17 20 22 22 22 20 18 15 11 5 1 7 12 19 25 29 31 33 36 37 39 37 38 40 41 44 44
Wind_Direction_850mb
233 234 234 235 238 242 244 246 248 251 251 250 248 249 250 246 244 243 243 240 236 239 237 241 233 230 232 232 233 235 237 242 245 254 256 263 273 279 290 294 303 307 309
236 236 237 239 239 243 245 249 252 253 254 252 250 249 250 248 246 245 242 243 239 233 233 237 230 225 224 227 232 235 238 243 249 256 260 269 273 280 284 287 296 300 306
235 237 239 241 242 242 246 248 252 253 257 253 249 247 247 247 243 245 238 240 238 226 229 230 230 228 225 226 231 234 240 247 253 259 264 269 275 281 283 286 291 294 299
242 241 241 242 244 243 243 242 251 253 253 259 254 246 246 242 240 242 238 237 227 223 222 223 226 228 227 229 232 236 243 249 256 261 266 269 274 279 285 288 286 290 294
242 243 246 247 249 247 243 244 241 242 244 253 251 248 242 238 242 241 242 231 225 223 218 222 222 224 224 229 232 237 245 251 258 263 268 273 277 283 286 286 287 290 295
239 243 247 254 256 256 255 256 254 251 251 252 247 244 242 240 252 244 229 229 223 225 221 222 219 222 228 231 234 240 247 255 262 266 272 276 280 283 284 285 288 294 298
248 240 240 244 248 251 252 252 252 251 253 258 260 262 247 232 245 234 233 222 225 221 222 218 220 222 230 232 235 241 246 255 263 269 274 279 279 281 281 284 288 291 293
318 291 268 265 263 255 250 249 249 252 255 249 245 239 237 238 234 233 225 222 223 222 220 220 222 223 233 235 238 243 248 257 268 272 273 276 277 278 281 283 287 291 293
282 281 275 266 263 262 261 262 259 253 249 243 245 253 245 236 229 220 219 218 222 222 221 220 222 224 232 236 242 247 251 258 269 274 275 276 278 279 282 286 289 291 295
252 240 261 273 266 260 255 248 247 248 248 252 248 239 230 227 228 222 224 225 223 221 220 218 219 229 235 238 245 250 254 262 269 273 274 276 280 283 284 285 286 288 290
303 272 246 222 235 249 248 243 244 244 242 240 238 235 235 228 230 234 228 227 227 226 224 222 225 231 238 242 245 249 259 263 266 270 273 276 278 280 284 288 285 285 288
335 309 279 266 244 232 237 234 241 234 225 233 241 234 230 226 226 226 225 228 227 226 225 223 225 234 239 241 251 259 263 266 272 270 273 275 278 278 282 282 284 286 288
347 331 311 278 257 251 244 242 234 228 230 245 249 252 243 240 238 234 229 224 223 221 221 222 233 237 242 255 264 266 265 270 269 267 271 276 281 283 285 284 282 282 288
345 337 325 305 276 256 244 245 237 243 239 236 249 241 248 244 240 236 233 224 218 214 217 224 231 238 247 258 266 262 267 265 266 270 273 276 284 289 289 284 285 289 295
346 338 327 313 292 268 255 249 248 241 236 240 246 247 247 243 241 237 230 225 219 215 221 225 235 245 260 261 257 258 258 263 265 268 264 269 278 284 284 286 293 297 299
351 342 333 320 303 282 268 258 247 241 240 234 237 236 233 232 231 230 227 223 221 215 220 231 234 244 253 250 247 251 259 257 251 258 266 275 284 292 292 294 297 301 302
353 347 339 328 311 297 277 263 256 246 238 230 224 227 226 227 229 221 217 215 214 217 221 229 237 244 240 242 243 239 237 240 251 255 265 275 285 288 290 292 295 298 302
356 352 345 341 323 307 291 274 263 251 242 235 233 228 225 222 220 220 214 215 210 212 222 227 223 231 234 226 223 229 227 232 244 259 268 274 281 285 289 293 296 300 305
356 0 359 356 345 323 306 286 266 247 235 221 212 196 193 195 196 201 207 211 207 204 208 215 212 213 213 213 216 222 220 221 230 251 265 275 286 294 300 302 304 307 310
4 5 7 12 9 348 330 306 267 234 209 192 176 170 160 171 172 171 168 177 189 194 192 192 195 194 199 206 205 202 191 175 175 224 265 289 304 309 310 312 313 316 317
359 0 16 18 25 28 16 23 19 171 165 147 141 143 141 146 144 149 159 161 166 175 178 183 190 200 199 188 171 163 154 150 169 307 314 317 319 318 318 318 320 322 321
355 359 9 22 33 36 50 72 79 89 104 113 114 121 118 127 135 141 152 160 168 181 181 184 180 174 170 163 151 145 143 149 349 332 321 318 318 318 318 319 319 320 323
345 355 6 17 29 53 67 70 76 87 106 123 128 134 132 129 140 157 167 171 175 168 158 155 153 157 158 150 138 136 126 333 330 325 320 319 319 318 318 322 322 326 330
329 331 345 355 358 2 26 75 110 115 105 100 99 98 95 122 152 160 155 153 148 142 143 148 150 149 144 140 139 115 330 326 327 327 325 323 320 321 321 324 327 331 332
345 346 347 347 352 357 360 21 63 78 74 68 75 110 140 146 143 139 139 139 141 142 144 144 142 138 132 117 346 329 327 329 330 328 326 323 320 319 322 326 328 326 328
336 333 335 339 338 346 29 70 72 81 100 121 129 132 141 143 143 144 143 143 141 142 141 142 140 139 356 330 330 326 328 330 332 327 322 319 320 321 323 322 320 319 322